Regional Weather Roundup
Issued by NWS

Home | Current Version | Previous Version | Text Only | Print | Product List | Glossary Off
Versions: 1 2 3 4 5 6 7 8 9 10 11 12 13 14 15 16 17 18 19 20 21 22 23 24 25 26 27 28 29 30 31 32 33 34 35 36 37 38 39 40 41 42 43 44 45 46 47 48 49 50

000
ASUS43 KLMK 312002
RWRKY
KENTUCKY REGIONAL WEATHER ROUNDUP
NATIONAL WEATHER SERVICE LOUISVILLE KY
300 PM EST SAT JAN 31 2015

NOTE "FAIR" INDICATES FEW OR NO CLOUDS BELOW 12,000 FEET
WITH NO SIGNIFICANT WEATHER AND/OR OBSTRUCTIONS TO VISIBILITY.

KYZ001>023-026-027-061>063-070>075-312100-
WESTERN AND SOUTH CENTRAL KENTUCKY

CITY           SKY/WX    TMP DP  RH WIND       PRES   REMARKS
PADUCAH        CLOUDY    44  23  43 SE6       30.28F
HENDERSON      CLOUDY    43  25  49 CALM      30.32F
OWENSBORO      CLOUDY    42  24  49 W6        30.34F
HOPKINSVILLE   CLOUDY    46  19  33 VRB1      30.30F
BOWLING GREEN  CLOUDY    45  21  38 CALM      30.33F
GLASGOW        NOT AVBL
$$

KYZ024-025-028>034-038-045-046-053-312100-
NORTH CENTRAL KENTUCKY

CITY           SKY/WX    TMP DP  RH WIND       PRES   REMARKS
LOUISVILLE/SDF CLOUDY    43  20  39 CALM      30.31F
LOUISVILLE/LOU CLOUDY    42  20  41 SW5       30.31F
FORT KNOX      CLOUDY    41  20  43 S3        30.30S
$$

KYZ035>037-039>044-047>052-055>060-089>105-312100-
NORTHEAST KENTUCKY

CITY           SKY/WX    TMP DP  RH WIND       PRES   REMARKS
LEXINGTON      MOSUNNY   40  17  39 W7        30.30F
COVINGTON      CLOUDY    38  19  46 W8        30.29S WCI  32
FRANKFORT      MOSUNNY   41  15  35 SW7       30.29F
$$

KYZ054-064>069-076>088-106>120-312100-
SOUTHEAST KENTUCKY

CITY           SKY/WX    TMP DP  RH WIND       PRES   REMARKS
JACKSON        PTSUNNY   42  14  32 VRB3      30.29F
LONDON         CLOUDY    42   9  25 W6        30.30F
SOMERSET       NOT AVBL
MIDDLESBORO    NOT AVBL
MONTICELLO     MOCLDY    46   9  22 CALM      30.34F
$$



USA.gov is the U.S. government's official web portal to all federal, state and local government web resources and services.